Lake Clear, NY

4:46 PM EST on December 05, 2016 (GMT -0500)
Adirondack Regional

Weather History for KSLK - January, 2014

Change the Weather History Date:

Sunday, January 12, 2014

  Actual Average Record
Temperature  
Mean Temperature 33 °F 13 °F  
Max Temperature 37 °F 25 °F 49 °F (1980)
Min Temperature 29 °F 2 °F -29 °F (1982)
Degree Days  
Heating Degree Days 32 52  
Month to date heating degree days 650 615  
Since 1 July heating degree days 4488 4314  
Cooling Degree Days 0 0  
Month to date cooling degree days 0  
Year to date cooling degree days 0  
Moisture  
Dew Point 28 °F    
Average Humidity 84    
Maximum Humidity 96    
Minimum Humidity 72    
Precipitation  
Precipitation 0.04 in 0.06 in 0.76 in (1980)
Month to date precipitation 1.29 0.85  
Year to date precipitation 1.29 0.85  
Sea Level Pressure  
Sea Level Pressure 29.53 in    
Wind  
Wind Speed 10 mph (WSW)    
Max Wind Speed 22 mph    
Max Gust Speed 36 mph    
Visibility 5 miles    
Events Rain , Snow    
T = Trace of Precipitation, MM = Missing Value Source: NWS Daily Summary

Daily Weather History Graph

Daily Weather History Graph

Search for Another Location

Airport or City:

Trip Planner

Search our weather history database for the weather conditions in past years. The results will help you decide how hot, cold, wet, or windy it might be!

Date:

Astronomy

Jan. 12, 2014 Rise Set
Actual Time 7:30 AM EST 4:39 PM EST
Civil Twilight 6:58 AM EST 5:12 PM EST
Nautical Twilight 6:22 AM EST 5:48 PM EST
Astronomical Twilight 5:47 AM EST 6:23 PM EST
Moon 2:06 PM EST (1/12) 4:26 AM EST (1/12)
Length of Visible Light 10h 13m
Length of Day
9h 08m
Waxing Gibbous, 89% of the Moon is Illuminated
Jan 12
Waxing Gibbous
Jan 15
Full
Jan 24
Last Quarter
Jan 30
New
Feb 6
First Quarter

Hourly Weather History & Observations

Time (EST) Temp. Windchill Dew Point Humidity Pressure Visibility Wind Dir Wind Speed Gust Speed Precip Events Conditions
12:17 AM 35.6 °F 27.5 °F 33.8 °F 93% 29.24 in 10.0 mi WSW 11.5 mph 20.7 mph 0.00 in   Overcast
12:51 AM 36.0 °F 26.7 °F 33.1 °F 89% 29.27 in 10.0 mi WSW 15.0 mph 24.2 mph 0.00 in   Overcast
1:19 AM 35.6 °F 27.5 °F 33.8 °F 93% 29.25 in 5.0 mi WSW 11.5 mph 21.9 mph 0.01 in Rain Rain
1:49 AM 33.8 °F 25.8 °F 32.0 °F 93% 29.26 in 7.0 mi WSW 10.4 mph 26.5 mph 0.01 in Snow Light Snow
1:51 AM 34.0 °F 26.0 °F 32.0 °F 92% 29.29 in 7.0 mi WSW 10.4 mph 24.2 mph 0.01 in   Overcast
2:29 AM 33.8 °F 22.5 °F 30.2 °F 87% 29.28 in 6.0 mi WSW 19.6 mph 35.7 mph 0.00 in   Overcast
2:43 AM 33.8 °F 24.3 °F 30.2 °F 87% 29.29 in 2.5 mi WSW 13.8 mph 29.9 mph 0.00 in Snow Light Snow
2:51 AM 33.1 °F 25.5 °F 30.9 °F 92% 29.33 in 2.0 mi West 9.2 mph 23.0 mph 0.00 in Snow Light Snow
3:05 AM 33.8 °F 23.9 °F 30.2 °F 87% 29.31 in 2.5 mi WSW 15.0 mph 23.0 mph 0.01 in Snow Light Snow
3:13 AM 33.8 °F 24.8 °F 30.2 °F 87% 29.31 in 4.0 mi WSW 12.7 mph 23.0 mph 0.01 in Snow Light Snow
3:51 AM 32.0 °F 21.2 °F 28.9 °F 88% 29.35 in 10.0 mi WSW 16.1 mph 27.6 mph 0.01 in   Overcast
4:13 AM 32.0 °F 22.5 °F 28.4 °F 87% 29.32 in 1.8 mi WSW 12.7 mph 27.6 mph 0.00 in Snow Light Snow
4:51 AM 30.9 °F 21.7 °F 28.9 °F 92% 29.36 in 1.2 mi WSW 11.5 mph 25.3 mph 0.00 in Snow Light Snow
5:04 AM 30.2 °F 18.5 °F 28.4 °F 93% 29.33 in 0.8 mi WSW 17.3 mph 25.3 mph 0.00 in Snow Light Snow
5:21 AM 30.2 °F 21.3 °F 28.4 °F 93% 29.35 in 1.0 mi WSW 10.4 mph 24.2 mph 0.00 in Snow Light Snow
5:51 AM 30.9 °F 21.7 °F 28.9 °F 92% 29.40 in 1.0 mi WSW 11.5 mph 21.9 mph 0.00 in Snow Light Snow
6:51 AM 30.0 °F 20.5 °F 28.0 °F 92% 29.45 in 1.2 mi WSW 11.5 mph 20.7 mph 0.01 in Snow Light Snow
7:03 AM 30.2 °F 19.3 °F 28.4 °F 93% 29.42 in 2.0 mi West 15.0 mph 24.2 mph 0.00 in Snow Light Snow
7:10 AM 30.2 °F 18.5 °F 28.4 °F 93% 29.43 in 2.5 mi WSW 17.3 mph 26.5 mph 0.00 in Snow Light Snow
7:32 AM 30.2 °F 20.2 °F 28.4 °F 93% 29.44 in 1.0 mi West 12.7 mph 23.0 mph 0.00 in Snow Light Snow
7:34 AM 30.2 °F 20.2 °F 28.4 °F 93% 29.44 in 1.0 mi WSW 12.7 mph 23.0 mph 0.00 in Snow Light Snow
7:49 AM 30.2 °F 18.9 °F 28.4 °F 93% 29.45 in 2.0 mi West 16.1 mph 26.5 mph 0.00 in Snow Light Snow
7:51 AM 30.0 °F 19.1 °F 28.0 °F 92% 29.49 in 2.0 mi WSW 15.0 mph 26.5 mph 0.00 in Snow Light Snow
8:03 AM 30.2 °F 22.6 °F 28.4 °F 93% 29.47 in 1.8 mi WSW 8.1 mph 24.2 mph 0.00 in Snow Light Snow
8:11 AM 30.2 °F 21.3 °F 28.4 °F 93% 29.48 in 1.5 mi WSW 10.4 mph 19.6 mph 0.00 in Snow Light Snow
8:21 AM 30.2 °F 22.6 °F 28.4 °F 93% 29.48 in 2.0 mi WSW 8.1 mph 23.0 mph 0.00 in Snow Light Snow
8:51 AM 30.9 °F 23.5 °F 28.0 °F 89% 29.55 in 2.0 mi West 8.1 mph 19.6 mph 0.00 in Snow Light Snow
9:21 AM 30.2 °F 21.3 °F 28.4 °F 93% 29.53 in 1.8 mi West 10.4 mph 19.6 mph 0.00 in Snow Light Snow
9:26 AM 30.2 °F 19.8 °F 28.4 °F 93% 29.54 in 3.0 mi WSW 13.8 mph 18.4 mph 0.00 in Snow Light Snow
9:51 AM 30.9 °F 22.2 °F 28.0 °F 89% 29.58 in 4.0 mi WSW 10.4 mph 19.6 mph 0.00 in Snow Light Snow
10:51 AM 30.9 °F 22.2 °F 28.0 °F 89% 29.61 in 4.0 mi WSW 10.4 mph 23.0 mph 0.00 in   Overcast
11:25 AM 30.2 °F 19.3 °F 28.4 °F 93% 29.57 in 2.0 mi West 15.0 mph 24.2 mph 0.00 in Snow Light Snow
11:49 AM 30.2 °F 21.3 °F 26.6 °F 86% 29.58 in 3.0 mi West 10.4 mph 23.0 mph 0.00 in   Overcast
11:51 AM 30.9 °F 23.5 °F 27.0 °F 85% 29.62 in 4.0 mi WSW 8.1 mph 23.0 mph 0.00 in   Overcast
12:38 PM 30.2 °F 19.8 °F 26.6 °F 86% 29.59 in 10.0 mi West 13.8 mph 23.0 mph N/A   Overcast
12:51 PM 30.9 °F 22.8 °F 26.1 °F 82% 29.63 in 10.0 mi WSW 9.2 mph 19.6 mph N/A   Overcast
1:33 PM 30.2 °F 19.3 °F 24.8 °F 80% 29.59 in 9.0 mi West 15.0 mph 27.6 mph N/A   Overcast
1:51 PM 30.9 °F 21.7 °F 25.0 °F 79% 29.65 in 9.0 mi WSW 11.5 mph 19.6 mph N/A   Overcast
2:04 PM 30.2 °F 20.2 °F 24.8 °F 80% 29.61 in 6.0 mi WSW 12.7 mph 23.0 mph 0.00 in   Overcast
2:34 PM 30.2 °F 22.6 °F 26.6 °F 86% 29.63 in 2.5 mi WSW 8.1 mph - 0.00 in Snow Light Snow
2:42 PM 30.2 °F 19.8 °F 26.6 °F 86% 29.63 in 4.0 mi WSW 13.8 mph 24.2 mph 0.01 in Snow Light Snow
2:51 PM 30.0 °F 20.0 °F 25.0 °F 82% 29.69 in 7.0 mi West 12.7 mph 23.0 mph 0.01 in   Overcast
3:51 PM 28.9 °F 22.8 °F 25.0 °F 85% 29.75 in 4.0 mi West 5.8 mph 24.2 mph 0.00 in Snow Light Snow
4:51 PM 28.9 °F 22.8 °F 24.1 °F 82% 29.79 in 10.0 mi Variable 5.8 mph - 0.00 in   Overcast
5:51 PM 30.0 °F 21.1 °F 24.1 °F 79% 29.82 in 10.0 mi West 10.4 mph 19.6 mph 0.00 in   Overcast
6:51 PM 30.0 °F 21.7 °F 23.0 °F 75% 29.86 in 10.0 mi WSW 9.2 mph 17.3 mph N/A   Overcast
7:51 PM 28.9 °F 20.4 °F 23.0 °F 78% 29.88 in 10.0 mi West 9.2 mph 18.4 mph N/A   Overcast
8:51 PM 28.9 °F 21.9 °F 23.0 °F 78% 29.90 in 10.0 mi WSW 6.9 mph - N/A   Overcast
9:51 PM 28.9 °F 21.1 °F 23.0 °F 78% 29.91 in 10.0 mi WSW 8.1 mph - N/A   Overcast
10:51 PM 28.9 °F 21.9 °F 24.1 °F 82% 29.91 in 10.0 mi WSW 6.9 mph - N/A   Overcast
11:51 PM 28.9 °F 20.4 °F 24.1 °F 82% 29.93 in 10.0 mi WSW 9.2 mph - N/A   Overcast